COSMOS 1579 COOLANT

Satellite information

Favourite Embed

Satellite Type and Status

DEBRISIN ORBIT

Key statistics

Satellite COSMOS 1579 COOLANT at a glance.

Uptime

15143

Days in orbit

Revolutions

≈ 13.9

Per day

Orbit

LEO

Low Earth Orbit

Inclination

65.0

Latest

Satellite identification and parameters

Extended collection of information and parameters for COSMOS 1579 COOLANT.

Object identification

Identified? True

Debris? False

Object name: COSMOS 1579 COOLANT

International designator: 1984-069M

Object number (NORAD): 26520

Object ID (CCSDS): 26520

Country: COMMONWEALTH OF INDEPENDENT STATES (CIS)

Current information (Y/N): Y

RCS size: SMALL

Orbital parameters

Period: 103.525 minutes

Inclination: 65.0492 deg

SMA: 7303.375 km

Apoapsis: 946.25 km

Periapsis: 904.23 km

RAAN: 39.1001 deg

Eccentricy: 0.00287675

Argument of periapsis: 76.6574 deg

Mean anomaly: 102.4505 deg

Mean motion: 13.90968786 rev/day

Mean motion (dot): 0.00000188 rev/day2

B* drag term: 0.0002202177 1/REarth

Two-line elements (TLE)

Creation date: Dec. 13, 2025, 4:32 a.m.

Reference frame: TEME

Reference center: EARTH

Epoch: Dec. 12, 2025, 10:16 p.m. UTC

TLE line 0: 0 COSMOS 1579 COOLANT

TLE line 1: 1 26520U 84069M 25346.92792741 .00000188 00000-0 22022-3 0 9991

TLE line 2: 2 26520 65.0492 39.1001 0028767 76.6574 102.4505 13.90968786634470

Live tracking on map

Real-time ground track for satellite COSMOS 1579 COOLANT.

In-orbit conjunctions

A list of the most updated potential collisions computed for object COSMOS 1579 COOLANT.

Target Orbit TCA Probability of collision Miss distance Type
COSMOS 660 LEO 2025-04-06 23:39:49 0.0001161382 588.0 (m) PAYLOAD
METEOR 2-17 DEB LEO 2025-03-14 08:37:23 0.0006733803 45.0 (m) DEBRIS
DELTA 1 DEB SSO 2024-11-15 17:09:00 0.0002651684 292.0 (m) DEBRIS

Associated space launch

Active radar satellite for ocean surveillance powered by a nuclear reactor.

COSMOS 1579 COOLANT was lifted into orbit during the mission ‘Tsiklon-2 | US-A 24’, on board a Tsiklon-2 space rocket.

The launch took place on June 29, 1984, 12:21 a.m. from 90.

For more information about the launch, click the button.

Launch to space Tsiklon-2 | US-A 24
Tsiklon-2 | US-A 24

Agency: N/A

Status: Launch Successful

Launch date: June 29, 1984, 12:21 a.m. UTC

Rocket: Tsiklon-2

Launch pad: 90

Location: Baikonur Cosmodrome, Republic of Kazakhstan

...

Latest news about this satellite

There are no fresh news available about this satellite. Check back as we update our databases every day.


Newsletter sign-up

Weekly statistics, charts and insights to help you stay on top of the space industry.